Location: Beddau
(51.5575°N, 3.3561°W)
Time: 12:47:14
(UTC+00:00)

Resurs 1-3 - Pass Details

Date: 03 March 2021
Orbit: 629 x 633 km, 97.9° (Epoch: 16 April)

Event Time Altitude Azimuth Distance (km) Brightness Sun altitude
Exits shadow 19:38:51 30° 107° (ESE) 1,131 4.3 -16.5°
Maximum altitude 19:40:13 39° 67° (ENE) 958 4.1 -16.7°
Drops below altitude 10° 19:44:20 10° 359° (N) 2,030 6.4 -17.3°
Sets 19:46:38 0° 352° (N) 2,943 7.3 -17.7°
